TimeCDT,TemperatureF,Dew PointF,Humidity,Sea Level PressureIn,VisibilityMPH,Wind Direction,Wind SpeedMPH,Gust SpeedMPH,PrecipitationIn,Events,Conditions,WindDirDegrees,DateUTC
12:54 AM,44.1,37.9,79,30.25,10.0,East,8.1,-,N/A,,Overcast,100,2013-03-29 05:54:00
1:54 AM,43.0,37.9,82,30.24,10.0,East,8.1,-,N/A,,Overcast,100,2013-03-29 06:54:00
2:54 AM,43.0,37.9,82,30.23,10.0,East,8.1,-,N/A,,Mostly Cloudy,90,2013-03-29 07:54:00
3:54 AM,42.1,37.0,82,30.22,10.0,East,9.2,-,N/A,,Scattered Clouds,100,2013-03-29 08:54:00
4:54 AM,39.9,36.0,86,30.22,9.0,East,8.1,-,N/A,,Partly Cloudy,90,2013-03-29 09:54:00
5:54 AM,39.0,36.0,89,30.22,8.0,East,8.1,-,N/A,,Partly Cloudy,90,2013-03-29 10:54:00
6:54 AM,37.9,35.1,89,30.23,6.0,East,8.1,-,N/A,,Clear,100,2013-03-29 11:54:00
7:54 AM,42.1,39.0,89,30.25,5.0,East,5.8,-,N/A,,Clear,80,2013-03-29 12:54:00
8:54 AM,46.9,41.0,80,30.25,8.0,East,11.5,-,N/A,,Clear,90,2013-03-29 13:54:00
9:54 AM,48.9,42.1,77,30.25,9.0,ESE,9.2,-,N/A,,Clear,110,2013-03-29 14:54:00
10:54 AM,52.0,43.0,71,30.25,10.0,East,3.5,-,N/A,,Clear,90,2013-03-29 15:54:00
11:54 AM,55.0,45.0,69,30.24,10.0,East,6.9,-,N/A,,Clear,90,2013-03-29 16:54:00
12:54 PM,57.0,44.1,62,30.23,10.0,Variable,3.5,-,N/A,,Partly Cloudy,0,2013-03-29 17:54:00
1:54 PM,59.0,45.0,60,30.22,10.0,Variable,5.8,-,N/A,,Mostly Cloudy,0,2013-03-29 18:54:00
2:54 PM,57.9,45.0,62,30.21,10.0,NNE,8.1,-,N/A,,Mostly Cloudy,30,2013-03-29 19:54:00
3:54 PM,59.0,44.1,58,30.20,10.0,ENE,3.5,-,N/A,,Partly Cloudy,60,2013-03-29 20:54:00
4:54 PM,60.1,44.1,55,30.19,10.0,ENE,6.9,-,N/A,,Partly Cloudy,60,2013-03-29 21:54:00
5:54 PM,57.9,42.1,56,30.19,10.0,NNE,3.5,-,N/A,,Clear,30,2013-03-29 22:54:00
6:54 PM,55.9,45.0,67,30.19,10.0,ENE,5.8,-,N/A,,Clear,70,2013-03-29 23:54:00
7:54 PM,52.0,42.1,69,30.20,10.0,NE,4.6,-,N/A,,Clear,50,2013-03-30 00:54:00
8:54 PM,48.0,42.1,80,30.22,10.0,NE,5.8,-,N/A,,Clear,40,2013-03-30 01:54:00
9:54 PM,48.0,41.0,77,30.22,10.0,NE,4.6,-,N/A,,Clear,50,2013-03-30 02:54:00
10:54 PM,46.0,39.9,79,30.22,10.0,ENE,5.8,-,N/A,,Clear,70,2013-03-30 03:54:00
11:54 PM,44.1,39.9,85,30.21,9.0,East,3.5,-,N/A,,Clear,80,2013-03-30 04:54:00